Vertical_Velocity
2 7 -1 4 -3 1 15 7 5 5 -1 3 0 2 4 4 1 -4 -3 0 -1 -3 -1 2 -1 1 1 -1 -1 2 2 1 1 -0 -1 -1 -2 -2 -1 -1 -1 -1 1
8 1 2 9 3 11 6 10 13 13 6 6 5 5 7 2 -1 2 -3 -1 -1 2 -5 -2 -4 -4 5 3 -4 -1 2 2 -2 -0 2 0 0 -1 -2 -2 1 -1 -2
3 11 6 2 14 14 19 2 3 7 8 7 2 4 5 10 7 5 3 -0 -0 6 -4 2 -4 1 2 2 -2 -1 -0 0 2 -3 -1 1 -2 -0 -1 0 -2 -1 2
0 -4 -4 2 5 3 13 12 38 -2 13 26 20 10 13 -2 9 -1 2 5 -2 1 2 -1 -2 -3 -0 4 2 -1 -0 -6 3 -2 -2 -2 1 3 1 -1 -3 0 -2
6 3 -1 2 19 7 -3 1 5 37 14 -4 1 18 27 2 12 5 -4 2 2 2 6 -1 -2 -3 -3 -0 1 3 -3 1 -2 -0 -3 -0 0 -2 0 -0 1 -0 -0
0 2 7 3 -1 1 4 0 -2 2 -25 5 3 -36 24 7 11 7 4 4 -0 -2 5 7 -0 -1 -4 -2 2 -0 -2 3 -6 3 0 -1 -1 -2 0 -2 -2 -3 -2
6 -4 2 3 -1 -8 9 2 4 -5 1 -9 13 34 7 19 -7 11 6 2 -1 -3 2 4 0 3 -4 -3 1 1 1 5 -8 -0 3 1 -1 2 -2 -3 -1 -2 -2
4 3 4 -4 -1 -1 -3 -0 1 -1 -4 9 5 3 -9 -1 11 -4 4 3 -1 -0 0 1 1 -0 -1 0 -1 3 1 -3 -0 -3 -2 2 -2 1 0 -0 -1 -3 -1
4 11 3 2 -0 -3 -5 0 5 -1 -0 15 11 6 3 -11 9 -3 1 6 0 -5 0 -2 -1 4 1 -1 -2 -1 0 -3 -0 -2 -3 -1 1 -3 0 -1 -0 -2 -1
10 11 11 -1 1 -0 -1 4 -0 -7 -15 17 41 -4 6 17 -12 14 2 5 4 -3 -3 -5 3 -3 2 1 1 -0 2 -4 -3 1 -3 -1 -1 -2 -1 1 1 -0 -3
14 1 4 12 5 -3 1 5 -4 7 -15 15 18 0 11 8 6 18 2 -4 5 -2 3 5 3 -5 -4 1 5 -1 3 -2 -4 -3 -1 -1 -4 -3 -1 -0 2 1 -2
18 -0 8 4 4 -6 -4 -1 -18 22 -7 14 -2 -9 2 -2 -7 1 3 14 11 7 -0 9 0 -3 -0 -4 1 4 4 -3 -4 -4 -1 1 -2 -3 -1 1 -2 -1 1
36 -32 16 2 -5 20 -6 -7 5 0 -11 10 -1 -3 -6 -4 12 3 -0 7 13 9 2 4 3 -5 3 2 2 4 4 2 3 -6 -2 2 -3 -4 2 1 2 -4 1
9 7 -13 9 13 -0 -2 10 6 3 -9 -1 1 10 1 -9 8 4 8 8 10 15 12 0 -5 -0 1 4 5 0 7 -2 3 -0 -1 -1 -1 0 -2 2 2 1 -3
-12 -4 -5 -41 0 9 -37 21 14 3 -0 8 -4 13 -1 9 10 3 12 4 5 16 -3 15 -2 -2 3 -1 -0 3 4 -3 4 1 -1 2 -2 -0 -2 -1 3 3 0
10 1 -8 10 3 14 6 -10 -11 11 14 11 5 4 -12 -7 10 14 15 3 1 10 12 -8 11 12 1 13 -5 3 1 4 -2 -1 4 1 -3 -1 1 2 0 -0 2
14 -1 -2 -0 -17 9 1 0 -2 -6 -12 9 9 12 7 21 -10 7 13 4 6 4 -3 3 15 23 0 13 -1 -1 1 5 2 -2 4 0 -1 1 -3 -1 -0 4 5
11 -7 -4 7 8 6 7 -2 7 -1 -2 -12 -26 -1 16 0 0 12 -1 4 4 -1 -4 -4 13 -0 7 10 5 6 2 5 -4 -4 5 -1 0 1 0 1 -2 -1 5
-8 -2 -3 -6 -3 -2 2 -4 4 3 -3 4 20 -7 6 2 -4 10 13 3 5 1 1 5 0 -1 -4 6 -6 7 3 2 1 -3 1 3 -0 -2 0 -1 -1 -2 -3
-3 -1 -2 1 -1 -1 -1 2 3 5 4 20 4 -8 4 1 4 8 6 5 10 16 -2 -7 -5 3 -4 -3 2 10 1 3 2 -1 4 4 3 2 -1 4 2 -0 -0
-7 -1 2 -1 1 -1 4 6 1 5 -0 3 5 5 -0 1 0 1 -13 9 22 19 7 -4 5 -4 -9 -19 -11 7 2 7 4 3 1 -4 1 2 4 -3 2 4 1
4 1 -3 -3 -1 -7 -3 -2 -0 -6 1 -3 0 1 -9 -1 -1 32 -0 -3 8 10 11 -7 -5 3 12 -4 4 -3 -2 -7 -19 -6 -6 -3 -4 -1 4 1 -1 0 1
-1 -1 -2 -0 3 -7 -3 -1 5 2 5 74 4 3 -8 -2 9 28 -4 7 3 5 11 16 6 -0 2 1 6 4 3 -2 3 4 3 -2 2 1 2 2 -1 -3 2
-5 -5 -3 -5 -6 3 -2 0 3 -2 7 9 14 -3 -0 4 2 9 9 2 0 6 -13 4 12 11 11 10 13 28 21 3 3 0 1 -2 5 2 -1 -2 3 -1 3
-7 -3 -3 -3 -4 -1 0 -0 1 2 -2 6 13 9 -10 24 6 -4 2 15 -1 7 14 10 17 12 16 22 2 1 -11 -7 3 2 -2 5 -1 1 -0 4 1 -0 2
-7 -5 -2 -4 -4 -3 -2 -0 -3 4 1 2 10 23 20 3 3 -4 -2 5 -13 3 13 -0 24 15 -5 12 12 6 12 -0 2 -9 -3 -5 -8 -1 -6 3 -2 1 1
Height
3131 3132 3132 3134 3135 3136 3136 3137 3140 3143 3146 3149 3150 3151 3153 3155 3157 3159 3161 3162 3163 3165 3165 3167 3168 3168 3168 3167 3169 3170 3171 3171 3171 3172 3173 3172 3172 3172 3171 3171 3171 3171 3171
3123 3124 3125 3126 3126 3127 3127 3130 3132 3135 3139 3142 3143 3145 3147 3150 3151 3153 3155 3157 3158 3160 3161 3162 3164 3166 3166 3166 3166 3167 3168 3169 3170 3170 3170 3170 3169 3168 3168 3169 3168 3168 3169
3114 3117 3118 3118 3118 3119 3119 3123 3124 3126 3130 3131 3135 3138 3139 3143 3144 3146 3149 3151 3153 3155 3157 3158 3160 3163 3163 3163 3163 3164 3165 3166 3167 3168 3168 3167 3167 3167 3165 3165 3166 3165 3166
3107 3109 3110 3108 3110 3103 3092 3112 3104 3118 3119 3118 3125 3129 3132 3136 3136 3140 3143 3145 3147 3151 3152 3153 3155 3157 3159 3160 3161 3161 3162 3163 3164 3165 3165 3165 3164 3164 3163 3163 3163 3164 3163
3099 3098 3099 3100 3095 3091 3101 3103 3106 3101 3108 3111 3109 3119 3123 3127 3129 3131 3135 3138 3141 3145 3147 3148 3150 3152 3155 3157 3157 3157 3158 3160 3161 3162 3163 3162 3161 3161 3160 3160 3160 3161 3161
3090 3089 3090 3092 3093 3095 3096 3097 3096 3098 3095 3101 3107 3110 3110 3116 3120 3123 3126 3130 3134 3138 3141 3143 3145 3147 3150 3153 3154 3155 3156 3157 3158 3159 3158 3159 3159 3159 3158 3159 3159 3160 3159
3080 3081 3081 3083 3085 3088 3090 3090 3089 3090 3091 3094 3101 3096 3100 3106 3108 3113 3118 3122 3126 3130 3134 3136 3139 3142 3144 3147 3150 3151 3152 3152 3154 3155 3155 3156 3157 3157 3157 3157 3157 3156 3156
3071 3071 3071 3074 3077 3078 3082 3082 3083 3083 3084 3087 3091 3093 3093 3096 3097 3100 3110 3113 3117 3122 3126 3129 3131 3135 3139 3142 3145 3146 3147 3148 3149 3151 3151 3152 3154 3153 3153 3153 3153 3154 3154
3061 3062 3060 3061 3065 3067 3069 3071 3073 3072 3074 3077 3076 3079 3078 3083 3085 3092 3096 3102 3107 3113 3117 3119 3123 3126 3131 3136 3139 3140 3141 3143 3145 3147 3148 3149 3150 3151 3150 3150 3150 3150 3150
3048 3050 3050 3050 3053 3056 3058 3060 3060 3062 3065 3065 3064 3063 3064 3067 3069 3078 3086 3091 3098 3103 3108 3111 3115 3119 3124 3130 3133 3135 3136 3139 3142 3143 3144 3145 3147 3147 3146 3146 3146 3147 3147
3035 3038 3039 3041 3041 3044 3046 3048 3050 3055 3053 3052 3057 3056 3057 3059 3067 3068 3073 3078 3085 3092 3100 3101 3107 3111 3117 3122 3127 3128 3130 3132 3136 3138 3140 3141 3143 3144 3143 3142 3143 3144 3143
3021 3025 3027 3028 3030 3032 3036 3040 3041 3043 3042 3046 3047 3048 3050 3052 3055 3062 3068 3073 3076 3077 3091 3094 3098 3103 3109 3114 3120 3122 3124 3126 3130 3132 3136 3137 3138 3140 3139 3140 3140 3140 3139
3009 3011 3013 3017 3020 3019 3024 3028 3029 3030 3033 3037 3040 3040 3039 3043 3049 3052 3059 3064 3067 3073 3080 3085 3089 3095 3101 3106 3111 3116 3117 3120 3125 3126 3130 3133 3134 3135 3136 3136 3136 3135 3135
3001 3000 3001 3006 3007 3009 3010 3014 3018 3020 3023 3028 3031 3031 3034 3036 3038 3040 3047 3054 3056 3063 3072 3076 3082 3086 3091 3097 3103 3109 3110 3114 3118 3120 3123 3126 3128 3130 3131 3132 3132 3133 3132
2987 2985 2986 2991 2996 2999 3002 3002 3003 3007 3011 3017 3020 3023 3026 3027 3028 3032 3037 3041 3051 3057 3063 3067 3074 3079 3084 3088 3095 3099 3103 3109 3111 3114 3116 3119 3122 3124 3127 3128 3129 3129 3129
2977 2973 2975 2981 2983 2983 2985 2995 2995 2997 3000 3007 3009 3013 3016 3017 3020 3026 3029 3032 3041 3049 3053 3058 3064 3070 3077 3080 3086 3091 3096 3103 3104 3107 3109 3112 3115 3119 3123 3124 3124 3124 3124
2966 2964 2968 2971 2973 2973 2971 2978 2982 2988 2990 2995 2999 3004 3006 3010 3014 3017 3019 3022 3027 3037 3043 3049 3056 3058 3067 3072 3077 3081 3087 3094 3096 3100 3102 3106 3109 3112 3115 3119 3120 3119 3120
2954 2956 2958 2960 2961 2961 2962 2965 2969 2973 2978 2985 2991 2993 2993 2999 3004 3009 3013 3016 3018 3023 3033 3041 3044 3050 3057 3063 3067 3073 3079 3085 3089 3093 3096 3099 3102 3106 3109 3112 3114 3114 3114
2949 2949 2949 2949 2951 2952 2953 2957 2959 2961 2965 2970 2974 2979 2987 2989 2992 2997 3004 3006 3011 3016 3021 3027 3034 3039 3046 3052 3056 3062 3070 3075 3079 3085 3089 3093 3095 3101 3105 3107 3108 3109 3110
2942 2942 2941 2941 2941 2942 2943 2945 2948 2950 2952 2955 2961 2968 2973 2977 2982 2987 2993 2996 3003 3009 3013 3018 3025 3029 3035 3042 3049 3056 3059 3065 3069 3077 3082 3087 3090 3094 3098 3100 3101 3103 3105
2935 2934 2933 2932 2932 2932 2932 2934 2935 2938 2941 2943 2947 2951 2958 2966 2970 2977 2982 2987 2990 2997 3002 3010 3013 3019 3023 3028 3035 3044 3052 3058 3063 3070 3075 3081 3086 3089 3092 3094 3095 3096 3098
2928 2925 2923 2922 2922 2920 2918 2919 2921 2925 2929 2933 2936 2941 2944 2954 2959 2964 2971 2977 2981 2988 2992 2998 3004 3009 3012 3019 3026 3033 3041 3045 3052 3057 3065 3071 3077 3081 3085 3087 3090 3091 3094
2917 2914 2911 2909 2907 2903 2901 2901 2904 2909 2914 2912 2923 2929 2936 2943 2948 2950 2958 2967 2973 2978 2985 2992 2995 3000 3005 3010 3018 3023 3030 3039 3046 3052 3058 3063 3069 3073 3078 3081 3084 3087 3088
2909 2905 2901 2897 2892 2889 2884 2884 2887 2894 2900 2905 2909 2916 2925 2931 2936 2940 2945 2953 2961 2968 2977 2980 2986 2994 2999 3004 3010 3020 3027 3032 3037 3041 3048 3054 3062 3066 3071 3075 3078 3080 3081
2903 2898 2892 2886 2878 2874 2871 2871 2873 2877 2884 2891 2897 2902 2912 2917 2925 2931 2936 2939 2948 2954 2961 2970 2978 2983 2989 2996 3000 3006 3012 3021 3026 3033 3040 3049 3054 3059 3065 3068 3071 3073 3075
2895 2890 2884 2877 2869 2865 2863 2861 2859 2862 2870 2880 2887 2891 2900 2905 2911 2918 2923 2928 2935 2941 2946 2955 2962 2971 2980 2988 2996 3004 3010 3015 3021 3026 3034 3042 3048 3053 3058 3062 3064 3066 3068